Time,TemperatureF,DewpointF,PressureIn,WindDirection,WindDirectionDegrees,WindSpeedMPH,WindSpeedGustMPH,Humidity,HourlyPrecipIn,Conditions,Clouds,dailyrainin,SoftwareType,DateUTC
2013-04-26 00:13:00,42.8,36.0,30.30,WNW,292,0.0,-999.0,78,-99.99,,,0.02,weatherlink.com 1.10,2013-04-26 04:13:00,
2013-04-26 00:28:00,42.3,38.0,30.30,NW,319,1.0,-999.0,83,-99.99,,,0.04,weatherlink.com 1.10,2013-04-26 04:28:00,
2013-04-26 00:59:00,41.4,38.0,30.31,NNW,339,0.0,-999.0,88,-99.99,,,0.08,weatherlink.com 1.10,2013-04-26 04:59:00,
2013-04-26 01:14:00,41.2,39.0,30.31,NNW,339,0.0,-999.0,90,-99.99,,,0.09,weatherlink.com 1.10,2013-04-26 05:14:00,
2013-04-26 01:44:00,41.0,39.0,30.30,WNW,292,0.0,-999.0,92,-99.99,,,0.10,weatherlink.com 1.10,2013-04-26 05:44:00,
2013-04-26 01:59:00,40.9,39.0,30.30,WNW,292,2.0,-999.0,92,-99.99,,,0.10,weatherlink.com 1.10,2013-04-26 05:59:00,
2013-04-26 02:14:00,40.9,39.0,30.31,West,259,3.0,-999.0,92,-99.99,,,0.10,weatherlink.com 1.10,2013-04-26 06:14:00,
2013-04-26 02:29:00,41.0,39.0,30.30,WSW,241,0.0,-999.0,93,-99.99,,,0.10,weatherlink.com 1.10,2013-04-26 06:29:00,
2013-04-26 02:44:00,41.0,39.0,30.31,WSW,241,0.0,-999.0,93,-99.99,,,0.10,weatherlink.com 1.10,2013-04-26 06:44:00,
2013-04-26 02:59:00,41.1,39.0,30.31,WSW,251,1.0,-999.0,93,-99.99,,,0.10,weatherlink.com 1.10,2013-04-26 06:59:00,
2013-04-26 03:14:00,41.1,39.0,30.32,WSW,250,0.0,-999.0,93,-99.99,,,0.10,weatherlink.com 1.10,2013-04-26 07:14:00,
2013-04-26 03:29:00,41.2,39.0,30.32,WSW,250,3.0,-999.0,93,-99.99,,,0.10,weatherlink.com 1.10,2013-04-26 07:29:00,
2013-04-26 03:44:00,41.3,40.0,30.33,WNW,288,0.0,-999.0,93,-99.99,,,0.10,weatherlink.com 1.10,2013-04-26 07:44:00,
2013-04-26 03:59:00,41.1,39.0,30.34,NW,313,1.0,-999.0,92,-99.99,,,0.10,weatherlink.com 1.10,2013-04-26 07:59:00,
2013-04-26 04:14:00,40.9,39.0,30.34,West,274,1.0,-999.0,91,-99.99,,,0.10,weatherlink.com 1.10,2013-04-26 08:14:00,
2013-04-26 04:29:00,40.6,38.0,30.34,West,275,0.0,-999.0,91,-99.99,,,0.10,weatherlink.com 1.10,2013-04-26 08:29:00,
2013-04-26 04:44:00,40.0,38.0,30.35,West,275,0.0,-999.0,91,-99.99,,,0.10,weatherlink.com 1.10,2013-04-26 08:44:00,
2013-04-26 04:59:00,39.3,37.0,30.35,West,275,0.0,-999.0,91,-99.99,,,0.10,weatherlink.com 1.10,2013-04-26 08:59:00,
2013-04-26 05:14:00,38.9,37.0,30.36,West,274,0.0,-999.0,92,-99.99,,,0.10,weatherlink.com 1.10,2013-04-26 09:14:00,
2013-04-26 05:29:00,38.8,37.0,30.36,West,275,0.0,-999.0,92,-99.99,,,0.10,weatherlink.com 1.10,2013-04-26 09:29:00,
2013-04-26 05:44:00,38.4,36.0,30.37,West,275,0.0,-999.0,92,-99.99,,,0.10,weatherlink.com 1.10,2013-04-26 09:44:00,
2013-04-26 05:59:00,37.9,36.0,30.38,West,275,0.0,-999.0,93,-99.99,,,0.10,weatherlink.com 1.10,2013-04-26 09:59:00,
2013-04-26 06:14:00,37.8,36.0,30.38,West,274,0.0,-999.0,93,-99.99,,,0.10,weatherlink.com 1.10,2013-04-26 10:14:00,
2013-04-26 06:29:00,38.4,37.0,30.39,West,274,2.0,-999.0,94,-99.99,,,0.10,weatherlink.com 1.10,2013-04-26 10:29:00,
2013-04-26 06:45:00,39.0,38.0,30.39,West,274,2.0,-999.0,95,-99.99,,,0.10,weatherlink.com 1.10,2013-04-26 10:45:00,
2013-04-26 07:00:00,39.3,38.0,30.40,West,274,0.0,-999.0,94,-99.99,,,0.10,weatherlink.com 1.10,2013-04-26 11:00:00,
2013-04-26 07:15:00,39.7,38.0,30.41,West,275,0.0,-999.0,95,-99.99,,,0.10,weatherlink.com 1.10,2013-04-26 11:15:00,
2013-04-26 07:45:00,40.4,39.0,30.42,WSW,246,0.0,-999.0,94,-99.99,,,0.10,weatherlink.com 1.10,2013-04-26 11:45:00,
2013-04-26 08:00:00,40.5,39.0,30.42,West,266,2.0,-999.0,93,-99.99,,,0.10,weatherlink.com 1.10,2013-04-26 12:00:00,
2013-04-26 08:30:00,42.4,40.0,30.42,NW,321,0.0,-999.0,90,-99.99,,,0.10,weatherlink.com 1.10,2013-04-26 12:30:00,
2013-04-26 09:00:00,44.2,39.0,30.43,North,351,0.0,-999.0,82,-99.99,,,0.10,weatherlink.com 1.10,2013-04-26 13:00:00,
2013-04-26 09:15:00,45.2,38.0,30.43,NNW,338,0.0,-999.0,77,-99.99,,,0.10,weatherlink.com 1.10,2013-04-26 13:15:00,
2013-04-26 09:45:00,47.5,38.0,30.43,North,360,1.0,-999.0,69,-99.99,,,0.10,weatherlink.com 1.10,2013-04-26 13:45:00,
2013-04-26 10:00:00,47.2,35.0,30.44,North,360,1.0,-999.0,63,-99.99,,,0.10,weatherlink.com 1.10,2013-04-26 14:00:00,
2013-04-26 10:15:00,46.4,35.0,30.44,NE,49,1.0,-999.0,65,-99.99,,,0.11,weatherlink.com 1.10,2013-04-26 14:15:00,
2013-04-26 10:45:00,46.0,33.0,30.45,NNE,15,0.0,-999.0,62,-99.99,,,0.11,weatherlink.com 1.10,2013-04-26 14:45:00,
2013-04-26 11:15:00,46.9,33.0,30.45,NNE,19,0.0,-999.0,60,-99.99,,,0.11,weatherlink.com 1.10,2013-04-26 15:15:00,
2013-04-26 11:30:00,48.3,33.0,30.45,North,360,0.0,-999.0,57,-99.99,,,0.11,weatherlink.com 1.10,2013-04-26 15:30:00,
2013-04-26 11:45:00,47.9,34.0,30.45,SW,232,2.0,-999.0,59,-99.99,,,0.11,weatherlink.com 1.10,2013-04-26 15:45:00,
2013-04-26 12:00:00,49.8,35.0,30.45,WSW,244,2.0,-999.0,57,-99.99,,,0.11,weatherlink.com 1.10,2013-04-26 16:00:00,
2013-04-26 12:15:00,49.5,34.0,30.45,NNW,331,4.0,-999.0,56,-99.99,,,0.11,weatherlink.com 1.10,2013-04-26 16:15:00,
2013-04-26 12:30:00,50.6,34.0,30.44,NNE,28,1.0,-999.0,54,-99.99,,,0.11,weatherlink.com 1.10,2013-04-26 16:30:00,
2013-04-26 12:45:00,50.7,34.0,30.44,NE,42,0.0,-999.0,53,-99.99,,,0.11,weatherlink.com 1.10,2013-04-26 16:45:00,
2013-04-26 13:00:00,50.8,34.0,30.44,North,355,0.0,-999.0,54,-99.99,,,0.11,weatherlink.com 1.10,2013-04-26 17:00:00,
2013-04-26 13:15:00,50.4,34.0,30.43,NNW,341,3.0,-999.0,53,-99.99,,,0.11,weatherlink.com 1.10,2013-04-26 17:15:00,
2013-04-26 13:45:00,51.1,34.0,30.43,NW,321,4.0,-999.0,53,-99.99,,,0.11,weatherlink.com 1.10,2013-04-26 17:45:00,
2013-04-26 14:00:00,51.0,33.0,30.43,NNW,333,0.0,-999.0,50,-99.99,,,0.00,weatherlink.com 1.10,2013-04-26 18:00:00,
2013-04-26 14:15:00,52.1,31.0,30.43,West,273,5.0,-999.0,45,-99.99,,,0.00,weatherlink.com 1.10,2013-04-26 18:15:00,
2013-04-26 14:30:00,53.0,32.0,30.43,NNW,336,0.0,-999.0,45,-99.99,,,0.00,weatherlink.com 1.10,2013-04-26 18:30:00,
2013-04-26 14:45:00,51.8,32.0,30.43,NNE,13,0.0,-999.0,47,-99.99,,,0.00,weatherlink.com 1.10,2013-04-26 18:45:00,
2013-04-26 15:00:00,52.3,33.0,30.43,NE,34,0.0,-999.0,48,-99.99,,,0.00,weatherlink.com 1.10,2013-04-26 19:00:00,
2013-04-26 15:31:00,53.5,34.0,30.42,NW,322,1.0,-999.0,47,-99.99,,,0.00,weatherlink.com 1.10,2013-04-26 19:31:00,
2013-04-26 15:46:00,54.3,34.0,30.42,NNW,338,0.0,-999.0,47,-99.99,,,0.00,weatherlink.com 1.10,2013-04-26 19:46:00,
2013-04-26 16:16:00,53.7,35.0,30.42,NNW,331,0.0,-999.0,50,-99.99,,,0.00,weatherlink.com 1.10,2013-04-26 20:16:00,
2013-04-26 16:46:00,53.1,36.0,30.42,North,360,10.0,-999.0,53,-99.99,,,0.00,weatherlink.com 1.10,2013-04-26 20:46:00,
2013-04-26 17:16:00,52.4,36.0,30.42,NE,35,4.0,-999.0,53,-99.99,,,0.00,weatherlink.com 1.10,2013-04-26 21:16:00,
2013-04-26 17:31:00,52.1,34.0,30.42,North,11,4.0,-999.0,51,-99.99,,,0.00,weatherlink.com 1.10,2013-04-26 21:31:00,
2013-04-26 17:46:00,51.2,33.0,30.42,NE,46,4.0,-999.0,51,-99.99,,,0.00,weatherlink.com 1.10,2013-04-26 21:46:00,
2013-04-26 18:01:00,51.8,34.0,30.42,NNE,26,0.0,-999.0,51,-99.99,,,0.00,weatherlink.com 1.10,2013-04-26 22:01:00,
2013-04-26 18:16:00,51.7,33.0,30.42,NNW,336,2.0,-999.0,49,-99.99,,,0.00,weatherlink.com 1.10,2013-04-26 22:16:00,
2013-04-26 18:31:00,51.5,32.0,30.43,NNE,33,6.0,-999.0,48,-99.99,,,0.00,weatherlink.com 1.10,2013-04-26 22:31:00,
2013-04-26 18:46:00,50.6,31.0,30.42,NNW,338,0.0,-999.0,48,-99.99,,,0.00,weatherlink.com 1.10,2013-04-26 22:46:00,
2013-04-26 19:01:00,50.2,33.0,30.42,NNE,19,1.0,-999.0,51,-99.99,,,0.00,weatherlink.com 1.10,2013-04-26 23:01:00,
2013-04-26 19:16:00,49.7,32.0,30.42,NNE,30,0.0,-999.0,51,-99.99,,,0.00,weatherlink.com 1.10,2013-04-26 23:16:00,
2013-04-26 19:31:00,48.9,31.0,30.42,North,360,0.0,-999.0,51,-99.99,,,0.00,weatherlink.com 1.10,2013-04-26 23:31:00,
2013-04-26 19:46:00,48.0,31.0,30.42,North,5,0.0,-999.0,52,-99.99,,,0.00,weatherlink.com 1.10,2013-04-26 23:46:00,
2013-04-26 20:16:00,46.8,35.0,30.43,North,5,0.0,-999.0,63,-99.99,,,0.00,weatherlink.com 1.10,2013-04-27 00:16:00,
2013-04-26 20:31:00,45.4,32.0,30.43,North,5,0.0,-999.0,61,-99.99,,,0.00,weatherlink.com 1.10,2013-04-27 00:31:00,
2013-04-26 20:46:00,43.8,33.0,30.43,North,5,0.0,-999.0,66,-99.99,,,0.00,weatherlink.com 1.10,2013-04-27 00:46:00,
2013-04-26 21:01:00,42.8,32.0,30.44,North,5,0.0,-999.0,67,-99.99,,,0.00,weatherlink.com 1.10,2013-04-27 01:01:00,
2013-04-26 21:16:00,42.8,33.0,30.43,North,5,0.0,-999.0,69,-99.99,,,0.00,weatherlink.com 1.10,2013-04-27 01:16:00,
2013-04-26 21:32:00,40.5,32.0,30.44,North,5,0.0,-999.0,73,-99.99,,,0.00,weatherlink.com 1.10,2013-04-27 01:32:00,
2013-04-26 21:47:00,39.6,32.0,30.43,North,5,0.0,-999.0,75,-99.99,,,0.00,weatherlink.com 1.10,2013-04-27 01:47:00,
2013-04-26 22:02:00,39.0,33.0,30.44,North,5,0.0,-999.0,78,-99.99,,,0.00,weatherlink.com 1.10,2013-04-27 02:02:00,
2013-04-26 22:17:00,38.6,32.0,30.44,North,5,0.0,-999.0,78,-99.99,,,0.00,weatherlink.com 1.10,2013-04-27 02:17:00,
2013-04-26 23:02:00,37.9,32.0,30.43,North,5,0.0,-999.0,79,-99.99,,,0.00,weatherlink.com 1.10,2013-04-27 03:02:00,
2013-04-26 23:17:00,36.2,31.0,30.44,North,5,0.0,-999.0,82,-99.99,,,0.00,weatherlink.com 1.10,2013-04-27 03:17:00,
2013-04-26 23:32:00,35.9,32.0,30.44,North,5,0.0,-999.0,84,-99.99,,,0.00,weatherlink.com 1.10,2013-04-27 03:32:00,
2013-04-26 23:47:00,35.4,31.0,30.44,North,5,0.0,-999.0,84,-99.99,,,0.00,weatherlink.com 1.10,2013-04-27 03:47:00,